This demonstration page uses our WeatherBlox Daily Observations layout. Learn more.

Left ArrowRight Arrow

53.62937, 11.41316

Hourly Observations for December 6, 2022

Temp ( °F °C ) Dew Point ( °F °C ) Humidity (%) Winds ( mph kmh ) Pressure ( in mb ) Visibility ( mi km ) Precip ( " mm )
12:20 am 00:20 Cloudy 34 1 34 1 100 100 VRB 1 2 30.03 1017 3 5 0.00 0.00
12:50 am 00:50 Cloudy 34 1 34 1 100 100 VRB 1 2 30.03 1017 3 5 0.00 0.00
1:20 am 01:20 Cloudy 34 1 34 1 100 100 VRB 2 4 30.03 1017 3 5 0.00 0.00
1:50 am 01:50 Cloudy 34 1 34 1 100 100 VRB 2 4 30.03 1017 3 5 0.00 0.00
2:20 am 02:20 Cloudy 36 2 34 1 93 93 VRB 1 2 30.03 1017 3 5 0.00 0.00
2:50 am 02:50 Cloudy 36 2 34 1 93 93 VRB 1 2 30.03 1017 3 4 0.00 0.00
3:20 am 03:20 Cloudy 36 2 36 2 100 100 VRB 2 4 30.03 1017 2 4 0.00 0.00
3:50 am 03:50 Cloudy 36 2 36 2 100 100 WSW 3 6 30.00 1016 2 3 0.00 0.00
4:20 am 04:20 Cloudy 36 2 36 2 100 100 W 3 6 30.00 1016 2 3 0.00 0.00
4:50 am 04:50 Cloudy 37 3 37 3 100 100 WNW 3 6 30.00 1016 3 5 0.00 0.00
5:20 am 05:20 Cloudy 37 3 37 3 100 100 VRB 2 4 30.00 1016 4 6 0.00 0.00
5:50 am 05:50 Cloudy 37 3 37 3 100 100 VRB 2 4 30.00 1016 6 10 0.00 0.00
6:20 am 06:20 Mostly Cloudy 39 4 39 4 100 100 NNW 5 7 30.00 1016 5 8 0.00 0.00
6:50 am 06:50 Mostly Cloudy 39 4 37 3 93 93 NNW 5 7 30.00 1016 6 10 0.00 0.00
7:20 am 07:20 Mostly Cloudy 39 4 37 3 93 93 NNW 5 7 30.00 1016 6 10 0.00 0.00
7:50 am 07:50 Mostly Cloudy 39 4 39 4 100 100 NNW 5 7 30.00 1016 6 10 0.00 0.00
9:20 am 09:20 Mostly Cloudy 39 4 37 3 93 93 NNW 5 7 30.00 1016 6 10 0.00 0.00
9:50 am 09:50 Mostly Cloudy 39 4 39 4 100 100 NW 3 6 30.00 1016 6 10 0.00 0.00
10:20 am 10:20 Mostly Cloudy 39 4 39 4 100 100 NW 5 7 30.00 1016 6 10 0.00 0.00
10:50 am 10:50 Mostly Cloudy with Light Rain 39 4 39 4 100 100 NNW 3 6 30.00 1016 6 10 0.00 0.00
11:20 am 11:20 Mostly Cloudy with Light Rain 39 4 39 4 100 100 NNW 3 6 30.00 1016 6 10 0.00 0.00
11:50 am 11:50 Cloudy 39 4 39 4 100 100 NW 7 11 30.00 1016 6 10 0.00 0.00
12:20 pm 12:20 Cloudy with Light Rain 39 4 37 3 93 93 NW 9 15 30.00 1016 6 10 0.00 0.00
12:50 pm 12:50 Cloudy 39 4 37 3 93 93 NNW 7 11 30.00 1016 4 7 0.00 0.00
1:20 pm 13:20 Cloudy 39 4 37 3 93 93 NNW 8 13 29.97 1015 6 10 0.00 0.00
1:50 pm 13:50 Cloudy 39 4 37 3 93 93 NNW 6 9 29.97 1015 6 10 0.00 0.00
2:20 pm 14:20 Cloudy 39 4 37 3 93 93 NW 6 9 29.97 1015 6 10 0.00 0.00
2:50 pm 14:50 Cloudy 39 4 37 3 93 93 NW 6 9 29.97 1015 6 10 0.00 0.00
3:20 pm 15:20 Cloudy 37 3 37 3 100 100 WNW 7 11 29.97 1015 6 10 0.00 0.00
3:50 pm 15:50 Cloudy 37 3 36 2 93 93 WNW 7 11 29.97 1015 4 7 0.00 0.00
4:20 pm 16:20 Cloudy with Mist and Fog 37 3 36 2 93 93 WNW 7 11 29.97 1015 3 5 0.00 0.00
4:50 pm 16:50 Cloudy with Mist and Fog 37 3 36 2 93 93 WNW 7 11 29.97 1015 3 5 0.00 0.00
5:20 pm 17:20 Cloudy 37 3 36 2 93 93 WNW 6 9 29.97 1015 6 10 0.00 0.00
5:50 pm 17:50 Cloudy 37 3 34 1 87 87 W 8 13 29.97 1015 6 10 0.00 0.00
6:20 pm 18:20 Cloudy 36 2 32 0 87 87 WNW 8 13 29.97 1015 6 10 0.00 0.00
6:50 pm 18:50 Cloudy 36 2 30 -1 80 80 WNW 6 9 29.97 1015 6 10 0.00 0.00
7:20 pm 19:20 Cloudy 36 2 28 -2 75 75 NW 8 13 29.97 1015 6 10 0.00 0.00
7:50 pm 19:50 Mostly Clear 34 1 28 -2 80 80 W 3 6 29.97 1015 6 10 0.00 0.00
8:20 pm 20:20 Mostly Cloudy 32 0 30 -1 93 93 VRB 2 4 29.94 1014 6 10 0.00 0.00
8:50 pm 20:50 Mostly Cloudy 30 -1 30 -1 100 100 VRB 2 4 29.94 1014 6 10 0.00 0.00
9:20 pm 21:20 Cloudy 32 0 30 -1 93 93 WSW 3 6 29.94 1014 6 10 0.00 0.00
9:50 pm 21:50 Cloudy 32 0 30 -1 93 93 VRB 2 4 29.91 1013 6 10 0.00 0.00
10:20 pm 22:20 Cloudy 34 1 30 -1 86 86 VRB 3 6 29.91 1013 6 10 0.00 0.00
10:50 pm 22:50 Cloudy 34 1 30 -1 86 86 S 3 6 29.91 1013 6 10 0.00 0.00
11:20 pm 23:20 Cloudy 34 1 30 -1 86 86 SSW 3 6 29.88 1012 6 10 0.00 0.00
11:50 pm 23:50 Cloudy 34 1 32 0 93 93 SSW 5 7 29.88 1012 6 10 0.00 0.00

Powered by AerisWeather